BEIDOU-2 G4

Last updated on Mon Sep 15 2025 00:02:47 GMT+0000 (Coordinated Universal Time)

1 37210U 10057A 25257.26031012 -.00000123 00000+0 00000+0 0 9997 2 37210 2.9573 70.2152 0008387 170.3854 6.6647 1.00271113 54523
UTC large
Height (km)
Speed (km/s)
/
Latitude / Longitude
Inclination (degrees)
Orbital Period (minutes)
Azimuth
Elevation
Range (km)
Doppler Factor

Next 0 passes for location: London (51.5072 / 0.1276)

Sorry there are no passes over London.